weather.gov     
National Weather Service

Terminal Aerodrome Forecast
NWS Homepage
This page is being discontinued on March 12, 2014.
The same data is available at this site. Please update your bookmarks.
Thank you, and we apologize for the inconvenience.
Please send an email to SR-SRH.Webmaster@noaa.gov with any concerns.


Current Version
Previous Version:    01  02  03  04  05  06  07  08  09  10  11  12  13  14  
[Printable]
834
FTUS41 KCAR 242300 RRA
TAFBGR
TAF
KBGR 242350Z 2500/2524 35018G25KT P6SM VCSH SCT020 OVC035
      TEMPO 2501/2504 BKN025
     FM250400 34010KT P6SM BKN025
     FM250700 34008KT P6SM SCT040
     FM252200 02006KT P6SM FEW050 SCT250=


U.S. Dept. of Commerce
NOAA National Weather Service
1325 East West Highway
Silver Spring, MD 20910
E-mail: w-nws.webmaster@noaa.gov
Page last modified: May 16, 2007
NATIONAL WEATHER SERVICE: for Safety, for Work, for Fun - FOR LIFE